Location: İstanbul
(41.0082°N, 28.9784°E)
Time: 03:14:40
(UTC+03:00)

PCSat - Visible Passes

Search period start: 18 April 2024 00:00
Search period end: 28 April 2024 00:00
Orbit: 783 x 792 km, 67.0° (Epoch: 17 April)

Date Brightness Start Highest point End Pass type
(mag) Time Alt. Az. Time Alt. Az. Time Alt. Az.
18 Apr 12.6 04:26:47 10° N 04:29:59 16° NE 04:33:10 10° ENE visible
18 Apr 9.5 20:49:23 10° SSW 20:54:47 81° ESE 21:00:13 10° NNE visible
18 Apr 12.3 22:35:09 10° W 22:38:47 18° NW 22:42:27 10° N visible
19 Apr 12.8 03:55:58 10° NNE 03:58:03 12° NE 04:00:08 10° ENE visible
19 Apr 10.2 05:37:09 10° NNW 05:42:32 61° ENE 05:47:52 10° SE visible
19 Apr 9.6 20:17:57 10° SSW 20:23:14 58° ESE 20:28:33 10° NE visible
19 Apr 12.0 22:02:41 10° W 22:06:56 23° NW 22:11:14 10° N visible
20 Apr 10.8 05:05:39 10° NNW 05:10:52 45° NE 05:16:01 10° SE visible
20 Apr 11.6 21:30:25 10° WSW 21:35:08 30° NW 21:39:55 10° N visible
21 Apr 11.4 04:34:13 10° NNW 04:39:07 33° NE 04:43:59 10° ESE visible
21 Apr 11.1 20:58:20 10° WSW 21:03:24 40° NW 21:08:30 10° NNE visible
22 Apr 11.8 04:02:52 10° N 04:07:20 25° NE 04:11:47 10° ESE visible
22 Apr 9.7 05:45:43 10° NW 05:50:58 51° WSW 05:56:10 10° S visible
22 Apr 10.5 20:26:25 10° SW 20:31:42 55° WNW 20:37:02 10° NNE visible
22 Apr 12.9 22:14:47 10° NW 22:16:17 11° NW 22:17:48 10° NNW visible
23 Apr 12.2 03:31:36 10° N 03:35:30 20° NE 03:39:23 10° E visible
23 Apr 9.5 05:14:00 10° NNW 05:19:25 72° WSW 05:24:47 10° SSE visible
23 Apr 12.7 21:41:27 10° WNW 21:44:19 14° NW 21:47:12 10° N visible
24 Apr 12.5 03:00:30 10° N 03:03:37 15° NE 03:06:43 10° ENE visible
24 Apr 9.6 04:42:22 10° NNW 04:47:49 82° ENE 04:53:13 10° SSE visible
24 Apr 12.5 21:08:43 10° W 21:12:25 18° NW 21:16:08 10° N visible
25 Apr 12.7 02:29:43 10° NNE 02:31:40 12° NE 02:33:37 10° ENE visible
25 Apr 10.1 04:10:48 10° NNW 04:16:11 60° ENE 04:21:30 10° SE visible
25 Apr 12.2 20:36:15 10° W 20:40:34 24° NW 20:44:55 10° N visible
26 Apr 10.7 03:39:18 10° NNW 03:44:29 43° NE 03:49:37 10° SE visible
26 Apr 10.5 05:23:07 10° NW 05:27:35 27° WSW 05:32:00 10° SSW visible
27 Apr 11.2 03:07:52 10° NNW 03:12:44 32° NE 03:17:34 10° ESE visible
27 Apr 10.0 04:51:09 10° NW 04:56:06 37° WSW 05:01:01 10° S visible
